Theta_e
321 321 321 321 321 323 323 322 325 324 329 326 318 323 317 316 320 315 313 312 313 311 310 310 309 309 308 308 308 308 307 309 310 309 311 310 307 306 306 305 305 305 305 304 304 304 304 304 304 304 304 303 303 303 303 302 303 303 303 304 303 300 299 299 300 301 301 305 309 313 316 317 317 318 318 318 319 319 318 318 317 316 315 316 317 318 318 314 316 324 328 330 332 332 332 332 332
321 321 321 321 321 323 322 322 329 326 327 323 317 319 314 316 318 315 315 313 313 310 310 311 310 310 309 309 307 308 308 307 307 307 308 307 306 306 305 305 305 305 305 304 304 305 304 304 304 304 303 303 303 302 303 302 302 303 303 303 303 300 299 299 300 301 301 306 310 313 316 317 317 317 317 317 318 318 318 317 315 315 314 315 316 316 317 316 314 320 327 329 331 332 332 332 332
320 321 322 322 322 322 323 326 331 329 326 323 320 317 313 317 317 313 312 310 310 309 310 311 311 311 309 310 308 308 309 307 307 307 307 306 306 305 305 305 305 305 304 305 305 305 305 304 304 304 303 303 302 302 302 302 302 302 303 303 303 300 299 300 300 300 301 306 310 313 316 317 316 316 316 316 316 317 317 317 316 316 316 315 316 316 316 316 313 315 324 328 330 331 332 332 332
320 322 322 322 323 322 327 330 332 332 327 325 321 316 315 317 314 310 309 309 310 309 310 310 310 311 309 310 308 307 308 307 307 307 307 306 306 305 305 305 305 305 304 305 305 305 304 304 304 303 303 303 302 302 303 302 302 303 303 303 303 300 299 299 300 300 301 306 310 313 315 315 315 315 315 315 315 316 316 316 316 316 316 316 316 316 316 317 315 313 321 326 328 331 331 331 332
321 322 322 321 323 322 326 326 329 331 324 325 320 313 313 313 311 308 307 308 309 309 309 309 310 310 309 309 307 307 308 307 307 307 306 306 305 305 305 305 305 304 305 305 305 304 304 304 304 303 303 303 303 303 303 303 302 303 303 303 303 301 300 299 300 300 301 305 309 313 314 314 315 315 315 315 315 314 314 315 316 316 316 316 316 316 315 316 316 314 317 322 326 329 330 331 331
321 322 321 320 321 318 323 323 323 322 316 320 318 311 311 309 309 307 307 308 307 308 309 309 309 308 308 308 307 307 308 307 307 307 306 306 305 305 305 304 305 305 305 305 304 304 304 304 303 303 303 302 303 303 303 303 302 303 303 303 303 301 300 300 300 299 300 304 308 312 314 314 314 315 315 315 314 313 313 313 314 315 315 315 315 316 315 315 315 314 315 318 322 327 329 329 330
321 321 320 321 320 316 323 324 318 317 312 312 314 311 309 307 307 307 307 308 308 307 307 308 307 307 308 309 309 308 308 307 306 307 307 306 305 305 305 305 305 305 305 304 304 304 304 304 304 303 303 303 303 303 303 302 302 302 303 303 303 302 300 300 299 299 300 303 308 311 313 314 314 315 315 314 314 313 313 312 312 313 313 313 313 314 313 314 314 314 316 318 319 323 327 327 328
321 320 319 323 323 319 324 321 316 318 312 307 310 310 307 307 307 307 307 307 309 307 307 307 306 308 310 309 308 308 307 308 307 307 307 305 305 305 305 305 305 305 305 304 304 304 304 304 303 303 303 303 303 303 303 302 302 302 303 303 303 302 301 300 299 299 300 303 307 310 312 314 315 315 315 314 314 313 312 310 311 312 312 311 310 311 311 313 313 313 316 318 318 320 325 326 327
320 319 318 322 323 321 322 316 312 313 310 308 307 308 307 307 308 307 306 306 307 307 307 308 307 308 308 307 307 307 307 308 308 308 307 305 305 305 304 304 304 305 304 304 304 304 304 304 303 303 303 303 303 303 303 303 302 302 302 303 303 302 301 300 299 299 299 302 305 309 313 314 315 314 314 313 313 312 311 309 308 309 311 311 310 310 310 313 313 313 315 318 317 318 322 324 326
318 319 317 321 326 321 317 314 313 310 309 308 306 307 307 307 307 306 306 306 306 306 307 307 306 307 307 307 307 308 308 308 308 308 306 305 305 304 304 304 305 305 305 304 304 304 304 304 303 303 303 303 303 303 303 303 302 302 302 302 303 302 301 300 299 299 299 300 303 310 314 315 314 313 313 313 313 312 310 309 307 306 309 311 311 310 310 312 313 312 314 317 318 317 319 322 325
318 318 316 322 325 319 319 318 314 311 308 307 305 306 307 307 307 306 306 306 306 306 307 307 307 307 306 307 308 308 308 308 308 307 306 305 304 304 304 304 305 305 305 305 304 304 304 304 304 304 304 303 303 303 303 303 303 302 302 302 302 302 302 300 299 299 299 299 304 312 314 314 314 313 313 313 312 310 308 308 308 307 308 309 310 310 310 310 311 312 312 315 318 318 317 319 323
318 319 325 328 321 318 323 321 315 311 308 307 307 306 307 306 307 306 306 307 306 306 307 307 307 307 306 307 307 308 308 308 308 307 306 306 305 304 305 304 305 305 305 305 304 304 304 304 304 304 304 304 303 303 303 303 303 302 302 302 302 302 302 301 300 299 299 299 305 313 314 314 314 313 313 312 312 309 307 308 310 309 309 310 309 310 310 310 311 310 311 315 317 317 317 317 320
316 319 332 327 318 319 318 316 314 311 308 308 307 306 307 306 307 307 306 307 306 306 307 307 307 307 307 307 307 308 308 308 307 307 307 306 305 304 304 304 305 305 305 304 304 304 304 304 304 304 304 304 303 303 303 303 303 303 302 302 302 302 302 301 300 299 299 298 305 313 314 314 314 313 313 313 311 309 308 309 310 309 310 311 310 309 309 309 311 310 311 314 316 316 317 315 318
314 317 332 323 314 319 315 314 313 311 312 310 307 306 307 306 307 307 306 307 306 306 307 307 307 306 307 308 308 307 308 308 307 307 307 306 305 304 304 304 305 305 305 304 304 305 304 304 304 304 304 304 303 303 303 303 303 303 302 302 301 302 302 302 300 300 299 298 305 313 314 314 314 313 313 313 310 309 308 309 309 310 311 311 310 309 309 309 310 310 310 313 314 315 316 315 316
314 315 330 324 314 317 314 314 313 314 316 310 307 306 306 307 307 308 307 308 307 307 308 307 307 307 307 308 309 308 307 308 307 307 306 306 305 304 304 304 304 304 304 304 304 305 304 305 304 304 304 304 303 303 303 303 303 303 303 302 301 302 302 301 300 300 299 298 303 311 314 314 315 314 314 312 310 309 308 308 309 309 311 310 309 309 309 309 310 310 310 311 313 314 315 315 315
314 314 326 324 314 316 313 311 312 316 315 307 307 306 306 307 307 308 307 307 308 308 308 308 307 307 307 307 308 307 307 307 306 306 306 306 305 304 305 304 304 304 304 304 304 304 304 304 304 304 304 303 303 303 303 303 303 303 303 303 302 301 302 301 301 300 299 298 301 309 313 314 315 315 314 312 310 309 308 308 309 310 311 311 310 308 308 309 309 309 310 311 312 314 314 314 315
312 317 326 324 316 316 312 311 313 316 314 306 306 306 306 307 306 307 307 307 308 308 308 307 307 307 306 306 307 306 306 307 306 306 306 306 305 305 305 305 304 304 304 304 304 304 304 304 304 304 304 304 303 303 303 303 303 303 303 303 302 301 301 301 301 300 299 298 300 307 313 315 315 315 314 313 310 309 309 309 310 311 312 311 312 310 308 307 309 309 310 312 312 314 314 314 315
316 327 327 320 317 315 311 311 310 310 312 307 305 306 306 307 307 306 306 307 307 307 306 307 306 307 307 307 307 307 307 307 307 307 307 306 306 305 305 305 304 304 304 304 304 304 304 304 304 304 304 303 303 303 303 303 303 303 303 303 303 302 301 301 301 301 300 299 299 306 314 315 315 315 314 314 312 310 310 310 310 311 312 312 312 311 309 307 308 309 311 312 312 313 314 314 314
317 327 326 323 320 311 306 307 306 307 309 306 305 306 306 308 307 306 308 307 307 307 307 306 307 308 307 308 307 307 307 307 307 307 307 306 306 306 306 305 305 305 304 304 304 304 304 304 304 304 303 303 303 303 303 303 303 303 303 303 303 302 301 301 301 301 300 299 298 305 314 316 316 315 315 315 313 311 311 311 311 312 312 314 313 311 310 308 308 309 310 311 312 313 313 313 312
311 320 329 326 315 307 305 306 306 307 307 305 305 305 306 308 307 307 308 307 306 306 307 307 307 308 308 308 308 307 307 307 307 307 307 306 306 306 306 306 305 305 305 304 304 304 304 303 303 303 303 303 303 303 303 303 303 303 303 303 303 302 302 301 301 301 300 300 298 303 313 316 315 315 316 315 314 313 312 312 311 310 311 314 314 310 310 310 309 308 309 311 311 312 313 312 310
308 315 324 315 306 306 307 306 306 307 307 305 305 306 307 307 307 307 306 307 307 306 307 308 308 308 308 308 308 308 307 307 307 307 307 306 306 306 306 306 305 306 305 304 304 304 304 304 304 304 303 303 303 303 303 303 303 303 303 303 303 302 302 301 301 301 300 300 298 301 311 316 314 314 316 316 316 314 312 313 311 308 309 312 314 313 312 314 314 310 308 310 311 312 312 311 310
308 309 309 306 304 307 307 306 307 306 306 306 305 306 307 307 307 307 306 307 308 307 307 308 307 308 308 307 307 307 307 307 307 306 307 306 305 306 306 306 306 305 305 305 305 304 304 304 304 304 304 304 304 303 303 304 303 303 303 303 303 302 303 302 301 301 300 300 299 299 308 315 315 314 315 316 316 315 313 314 313 309 310 312 314 316 315 314 314 312 309 308 310 311 310 310 314
311 308 304 305 305 306 307 306 307 306 306 306 306 306 306 306 307 307 306 307 307 307 308 308 307 308 307 307 307 307 307 306 307 306 306 305 306 306 306 306 306 306 305 305 305 305 305 305 305 305 305 304 304 304 304 304 303 303 303 303 303 302 302 302 302 301 300 301 300 298 302 311 316 315 315 315 315 315 314 315 315 313 311 312 315 316 316 316 313 310 309 309 308 308 309 313 318
313 310 304 305 305 305 306 306 307 307 307 307 306 306 306 306 307 307 306 307 307 307 308 307 308 308 307 307 307 306 306 306 306 306 306 306 306 306 306 306 306 306 306 306 305 305 305 305 305 305 305 305 304 304 304 304 304 303 303 303 303 302 302 302 302 302 301 300 300 299 299 305 314 316 316 316 314 315 315 315 317 316 313 312 314 314 315 317 315 311 309 308 307 307 311 318 322
311 310 305 305 306 305 306 306 306 306 306 307 306 306 306 306 306 305 307 308 308 308 308 308 307 308 307 307 307 307 306 306 306 306 306 306 306 306 306 306 306 306 306 306 306 305 305 305 305 305 305 305 305 305 305 304 304 303 303 303 303 302 302 302 302 302 301 300 300 300 298 300 309 315 316 316 315 315 315 315 316 317 316 313 314 315 313 314 316 316 312 308 307 308 315 322 322
307 306 305 305 305 304 305 305 305 306 306 306 306 306 306 306 306 307 308 308 309 309 308 308 308 307 307 307 307 307 306 307 307 307 307 307 307 307 306 306 306 306 306 305 306 306 305 305 305 305 305 305 305 305 305 304 304 304 304 304 303 303 302 302 302 302 301 301 300 300 300 298 302 310 315 315 315 315 314 314 315 317 317 315 315 313 311 313 316 317 315 310 310 313 317 322 322
306 305 305 305 305 305 306 306 306 306 306 306 307 307 306 305 307 310 310 309 308 309 308 308 308 307 307 307 307 307 307 307 307 307 307 307 307 307 307 307 307 306 306 305 306 306 306 305 305 305 305 305 305 305 304 304 304 304 304 304 304 304 303 303 302 302 302 301 301 300 300 299 298 303 311 314 315 315 315 314 314 316 318 317 317 315 313 315 315 315 316 314 316 318 317 320 323
305 305 306 305 305 306 306 306 306 306 306 306 306 306 306 305 307 311 309 309 309 308 308 308 307 307 307 307 307 307 308 307 307 307 308 308 307 307 307 307 307 306 306 306 306 306 306 306 306 306 305 305 305 305 304 304 304 304 304 304 304 304 304 303 303 302 302 302 301 300 300 300 299 299 304 311 314 314 315 315 314 316 318 317 317 316 315 316 315 315 315 313 316 319 318 319 324
305 306 309 307 307 308 305 306 306 306 307 306 306 307 309 308 309 310 309 309 310 308 309 308 307 307 307 307 307 308 309 308 308 308 308 308 308 308 308 308 307 307 306 306 306 306 306 306 306 306 306 306 305 305 305 305 305 304 304 304 304 304 304 304 303 303 302 302 302 301 300 300 300 299 299 304 310 313 315 316 316 316 317 318 318 317 315 316 317 317 316 312 313 318 319 320 323
307 306 309 311 314 313 305 305 307 306 308 306 306 313 318 316 311 309 310 309 309 309 309 308 308 308 307 307 308 308 309 308 309 309 309 308 308 308 308 308 308 307 307 306 306 306 306 306 306 306 306 306 306 306 306 306 306 305 305 305 305 305 305 305 304 304 303 302 302 302 301 300 300 300 299 300 304 310 313 315 316 317 317 319 319 319 318 316 316 318 320 316 314 317 320 321 321
310 307 313 316 314 315 308 305 308 307 308 307 306 313 321 320 313 310 310 309 308 309 309 308 308 307 307 308 308 308 309 309 309 309 309 309 308 308 308 308 308 308 307 306 306 307 307 307 306 306 306 306 306 306 306 306 306 306 306 306 305 305 305 305 305 305 304 303 302 302 302 301 300 300 300 299 300 303 309 312 315 316 317 318 319 320 320 319 317 317 319 320 318 318 320 322 320
316 312 321 322 312 318 315 305 306 308 308 307 307 314 320 317 311 310 310 309 309 308 309 309 308 308 308 308 308 308 309 309 309 309 309 309 309 309 308 309 308 307 307 306 307 307 307 307 307 307 307 307 306 306 306 306 306 306 306 305 305 306 306 306 305 305 305 304 304 303 302 302 301 300 300 300 300 300 302 307 312 314 316 317 318 318 319 319 319 318 317 320 321 320 320 322 321
324 316 320 322 314 319 318 307 305 307 307 308 308 312 318 314 309 309 310 309 309 308 309 308 308 308 308 308 308 309 309 309 309 309 309 309 309 309 309 308 308 308 307 307 307 308 307 308 307 307 307 307 307 307 306 306 306 306 306 305 305 306 306 306 306 305 305 305 305 304 303 303 302 302 301 300 300 300 299 301 306 311 314 315 316 316 316 317 319 319 319 320 321 321 320 321 321
324 321 321 320 318 316 316 313 307 305 307 310 309 309 314 313 308 309 310 309 308 308 309 309 308 308 308 309 308 308 309 309 309 309 309 310 309 309 309 308 308 307 307 307 307 307 307 307 307 307 307 307 307 307 307 306 306 306 306 306 306 306 306 306 306 306 305 305 306 305 305 304 303 302 302 301 300 300 300 299 301 305 310 313 314 315 315 315 317 318 319 319 321 322 322 322 322
324 325 323 319 322 320 317 317 309 306 308 310 310 310 312 311 306 307 309 309 308 308 309 309 309 308 309 309 309 309 309 309 309 310 310 310 310 309 309 309 308 307 307 307 307 307 307 307 307 307 307 307 307 307 307 306 306 306 306 306 306 306 306 306 306 306 305 305 305 306 306 305 305 304 303 302 301 301 301 300 300 301 304 308 312 313 314 315 316 317 317 318 319 320 321 322 323
321 321 320 319 324 323 318 315 309 305 309 313 313 313 313 312 308 307 308 308 308 308 309 309 308 308 309 309 310 309 309 309 310 310 310 310 310 309 309 308 308 308 308 307 307 307 307 307 307 307 307 307 307 307 307 306 306 306 306 306 306 306 305 306 306 306 306 305 305 305 306 306 306 305 304 303 302 302 301 301 301 300 300 302 305 310 312 313 314 315 316 317 318 318 319 320 321
315 316 319 320 322 325 321 313 307 304 311 319 314 313 313 311 311 308 306 308 307 307 308 308 309 309 309 310 310 310 309 310 310 310 310 310 310 309 309 309 308 308 308 308 307 307 307 307 307 307 307 307 307 307 307 307 306 306 306 306 306 306 306 306 306 306 306 306 306 305 305 306 306 306 306 305 304 303 302 301 301 301 300 300 301 303 305 307 310 313 315 315 316 317 317 318 319
316 317 321 322 320 324 319 310 309 306 310 319 314 313 314 311 312 308 304 307 307 307 308 309 311 310 309 310 310 310 310 310 310 310 310 310 310 309 309 309 308 308 308 308 308 307 307 307 307 307 307 307 307 307 307 306 306 306 306 306 306 306 306 306 306 306 306 306 306 306 305 306 306 306 306 306 305 304 303 302 302 301 301 301 300 300 301 301 304 307 310 312 314 315 316 316 317
319 318 319 321 318 320 317 310 313 309 309 321 318 313 315 314 314 309 304 307 309 309 309 310 311 310 310 310 310 311 310 310 310 309 309 310 310 309 309 309 308 308 308 308 308 308 308 307 307 307 307 307 306 306 306 306 306 306 306 306 306 306 306 306 306 306 306 306 306 306 306 306 306 306 306 306 306 305 304 304 303 302 302 301 301 301 300 300 300 302 303 305 307 310 313 315 316
318 318 318 320 316 316 319 316 314 311 309 317 316 313 318 321 320 315 307 307 310 310 310 309 309 310 310 311 310 311 310 310 311 309 309 310 310 309 309 309 309 309 308 308 308 308 308 308 307 307 307 307 306 306 306 306 306 306 306 306 306 306 306 306 306 306 306 306 306 306 306 306 306 306 306 306 306 306 306 305 304 303 303 302 302 301 301 301 300 300 300 301 302 304 308 311 313
317 318 319 318 314 311 315 315 312 314 311 310 315 320 325 328 329 324 313 308 310 310 310 310 310 311 311 311 311 311 311 311 311 310 309 310 310 309 309 309 309 309 309 309 308 308 308 308 307 307 307 307 307 306 306 306 306 306 306 306 306 306 306 306 306 306 306 306 306 306 306 306 306 306 306 306 306 306 306 306 305 305 304 304 303 302 302 301 301 301 301 300 300 301 303 305 307
320 317 313 310 311 310 312 313 314 324 320 310 313 319 325 331 328 324 321 317 314 309 308 310 310 310 311 311 311 311 311 311 310 309 309 310 310 309 309 309 309 309 308 308 308 308 308 308 308 307 307 307 307 307 307 307 306 306 306 306 306 306 306 306 306 306 306 306 306 306 306 306 306 306 306 306 306 306 306 306 306 306 305 305 304 304 303 302 302 301 301 300 301 300 301 301 302
321 313 308 308 309 310 313 314 315 324 321 311 312 313 320 334 325 321 325 323 322 319 312 310 310 310 310 310 311 311 310 310 310 309 309 310 310 310 309 309 309 308 308 308 308 308 308 308 308 307 307 307 307 307 307 307 307 306 306 306 306 306 306 306 306 306 305 306 306 306 306 306 306 306 306 306 306 306 306 306 306 306 306 305 305 305 304 304 304 303 302 301 301 300 300 300 301
317 310 308 309 310 310 312 313 314 318 315 316 321 315 314 331 329 324 323 319 323 329 321 314 311 311 311 310 310 310 310 310 310 310 310 310 310 310 310 309 309 308 308 308 307 308 307 307 307 307 307 307 307 307 307 307 307 307 306 306 306 306 306 306 306 306 306 305 306 305 305 305 305 306 306 306 306 306 306 306 306 306 306 306 306 305 305 305 305 304 304 303 302 302 301 301 301
313 307 306 308 308 310 310 312 317 316 314 320 331 318 312 334 339 326 319 317 319 320 319 315 311 312 312 311 311 311 311 311 310 310 310 310 310 310 309 309 309 308 308 308 308 308 307 307 307 307 307 307 306 306 307 307 307 307 307 307 307 307 306 307 307 307 306 306 306 305 305 305 305 305 305 305 305 305 306 306 306 306 306 306 306 306 306 305 305 305 305 304 304 304 303 302 301
309 304 306 309 309 310 310 311 316 318 319 319 324 314 312 335 344 326 315 317 319 316 317 315 311 312 313 312 312 311 311 311 310 311 310 310 310 309 309 309 309 309 308 309 308 308 308 307 307 307 307 306 307 307 307 307 307 307 307 307 307 307 307 307 307 307 306 306 306 306 305 305 305 305 305 305 305 305 305 305 305 305 305 305 305 306 306 306 306 306 305 305 305 305 304 304 304
305 307 311 313 313 312 310 312 315 319 325 321 317 313 312 324 336 330 318 319 322 319 317 315 311 312 312 312 312 311 311 311 310 311 310 310 310 309 309 309 309 309 308 309 309 308 308 308 308 308 307 307 307 308 308 308 307 307 307 307 307 307 307 307 307 307 307 306 306 306 306 305 305 305 305 305 305 305 305 305 305 305 305 305 305 305 305 305 305 305 305 306 306 305 305 305 305
306 312 315 315 320 317 316 322 320 319 325 320 314 313 312 317 326 326 322 321 322 320 317 316 313 312 312 312 312 311 311 311 310 310 310 310 309 309 309 309 309 309 309 309 309 309 309 308 309 308 308 308 308 308 308 308 308 307 307 307 307 307 307 307 307 307 307 307 307 307 306 306 306 305 305 305 305 304 304 305 305 305 305 305 305 304 304 305 305 305 305 305 305 305 305 305 305
309 315 320 321 329 327 324 331 325 321 324 316 311 312 312 320 324 320 321 321 317 314 314 315 312 311 312 311 311 311 311 310 311 310 310 310 309 309 309 309 309 309 309 309 309 309 309 309 309 308 308 308 308 308 308 308 308 307 308 308 307 307 307 307 307 307 307 307 306 307 306 306 306 306 305 305 305 304 304 304 305 305 305 305 305 305 305 304 304 304 304 305 305 305 305 305 305
312 316 322 325 328 324 325 330 321 317 321 314 309 312 318 325 322 318 321 318 312 310 311 312 312 311 311 311 311 310 311 311 311 310 309 309 309 309 309 309 309 309 309 310 309 309 309 309 309 309 308 308 308 308 308 308 308 308 308 308 307 307 307 307 307 307 307 307 307 307 306 306 306 306 305 305 305 304 304 304 305 305 305 305 304 304 304 304 304 304 304 304 304 304 304 304 304
314 312 315 322 324 319 321 326 321 317 322 320 311 314 326 325 315 315 314 310 309 310 311 311 311 311 310 310 311 310 312 312 311 310 309 309 309 309 309 309 309 309 309 309 309 309 309 309 309 308 308 308 308 308 308 308 308 308 308 307 307 307 307 307 307 307 307 307 307 306 306 306 306 305 305 305 305 304 304 304 304 305 305 305 305 304 304 304 304 304 304 304 304 304 304 304 304
313 309 314 319 319 321 320 315 316 317 320 325 318 318 329 322 313 315 310 307 309 309 310 311 310 311 311 311 311 311 312 311 310 310 309 308 309 308 308 308 308 308 308 308 308 308 308 308 308 307 307 307 307 307 307 307 307 307 307 306 306 306 306 306 306 306 306 306 306 306 306 306 306 305 305 305 305 304 304 304 304 304 304 304 304 304 304 304 304 304 304 304 304 304 304 304 304
311 311 314 311 309 318 320 312 312 314 317 326 321 320 329 321 315 320 314 311 312 309 309 310 310 312 311 311 312 312 312 311 310 310 308 308 308 307 308 308 307 307 307 307 307 307 307 307 307 307 306 306 306 306 306 306 306 306 306 306 306 305 305 305 305 305 305 305 306 306 306 306 306 305 305 305 305 305 305 304 304 304 304 304 304 304 304 304 304 304 304 304 304 304 303 304 304
313 314 311 308 308 312 317 318 323 321 321 329 323 319 328 325 321 322 316 313 314 312 310 309 310 313 312 312 313 311 311 310 309 309 308 308 308 307 307 307 307 307 307 307 307 307 306 306 306 306 306 306 306 307 306 306 306 306 306 306 306 305 305 305 305 305 304 304 304 305 305 305 305 305 305 305 305 305 305 305 304 304 304 304 304 304 304 303 303 303 303 303 303 303 303 303 303
308 310 306 309 314 316 317 320 325 322 319 326 328 322 322 324 328 324 315 315 317 314 312 311 312 312 312 312 311 310 310 309 309 309 307 308 307 307 307 306 307 307 306 306 306 306 306 306 306 306 306 307 306 307 307 307 307 306 306 305 305 305 305 305 305 304 304 304 304 304 304 304 304 304 305 305 305 305 305 305 305 305 305 304 304 304 304 303 303 303 303 303 303 302 302 303 303
303 307 306 308 315 318 318 316 318 322 320 322 329 329 324 328 335 328 317 318 317 314 316 316 312 311 311 311 311 310 310 309 309 308 307 308 307 307 307 306 306 306 306 306 305 306 306 306 306 306 306 307 307 307 307 307 307 306 306 305 305 305 304 304 304 304 304 304 303 303 303 303 303 303 303 304 304 304 304 304 304 304 304 304 304 304 303 303 303 302 302 302 302 302 302 302 302
309 314 313 312 312 311 313 312 313 321 325 323 323 328 336 336 330 324 321 321 316 314 317 314 310 311 311 310 310 310 310 309 309 308 307 307 306 307 306 306 306 306 306 306 305 306 306 306 306 306 306 307 307 307 307 307 307 306 306 305 305 305 304 304 304 304 304 304 303 303 303 303 303 303 303 303 303 303 303 303 303 303 303 303 303 303 303 302 302 302 301 301 301 301 301 301 301
310 315 315 317 316 314 319 317 312 314 319 323 320 321 334 332 321 319 319 315 310 309 311 310 309 311 311 310 311 310 309 310 308 308 307 307 306 306 306 306 306 306 305 305 305 306 306 306 306 306 306 306 306 306 306 306 306 305 305 305 305 304 304 304 304 304 304 304 304 304 304 304 304 303 303 303 303 303 303 303 303 303 303 303 302 302 302 301 301 301 301 301 301 300 300 300 301
Wind_Speed
5 4 3 1 1 0 2 2 1 2 4 3 1 1 0 1 1 3 2 1 0 0 1 2 2 2 1 1 2 2 2 3 4 2 2 5 7 9 9 10 13 14 16 14 10 9 9 11 12 12 12 11 12 12 12 12 12 11 11 11 12 13 14 15 16 17 19 19 21 21 18 17 17 17 16 15 17 18 19 20 20 21 21 18 18 19 20 20 24 24 21 20 16 14 16 21 23
6 4 3 2 1 1 1 2 1 2 4 2 2 2 1 2 3 3 4 4 3 3 2 1 1 1 1 1 2 0 2 4 4 4 6 7 8 9 9 11 13 15 15 12 10 9 10 12 12 13 13 13 13 13 13 13 13 12 11 11 12 13 14 15 16 17 19 19 21 22 19 18 18 18 18 17 17 19 20 21 20 19 20 19 19 20 20 20 23 26 23 21 18 14 14 20 22
6 4 2 2 1 2 2 3 2 2 3 2 3 2 0 2 2 5 6 4 4 4 3 2 2 1 1 2 3 2 3 4 5 5 6 8 8 8 10 12 14 14 12 11 10 10 11 12 12 13 14 14 14 14 14 14 13 13 12 12 12 13 14 15 16 17 19 20 22 22 20 19 20 21 22 21 19 19 20 21 21 18 19 19 20 20 20 20 23 26 25 21 20 18 17 18 19
7 5 2 1 2 3 3 3 2 4 2 3 2 4 1 5 5 6 6 6 5 4 4 3 3 2 1 2 3 3 5 5 5 5 6 8 8 9 11 12 14 13 10 10 10 11 12 12 12 14 15 15 14 15 15 15 15 14 13 12 13 14 15 16 17 18 20 21 22 23 22 22 23 24 24 23 21 21 22 21 20 19 19 19 20 21 20 20 21 24 25 24 22 20 19 19 19
8 5 2 2 3 2 3 3 2 4 2 3 2 4 3 5 6 6 6 5 5 4 4 3 2 3 3 4 3 2 4 5 5 5 6 8 8 10 11 12 12 10 9 9 10 11 12 12 13 14 15 15 15 16 17 17 16 15 14 13 13 14 15 16 18 19 20 21 22 23 24 24 24 24 24 24 23 24 24 21 20 20 19 19 19 20 21 20 20 22 23 25 25 19 18 19 20
8 5 2 5 4 2 3 2 2 2 3 4 3 3 4 6 8 8 6 4 4 4 4 4 2 3 4 4 6 4 4 4 4 4 6 8 8 9 9 10 9 8 8 8 9 11 12 12 13 14 15 15 16 17 17 17 17 16 14 14 14 14 15 16 18 19 20 22 22 23 24 25 25 25 25 23 23 23 24 23 22 22 21 22 21 21 21 20 20 21 21 22 26 22 18 19 22
6 4 3 4 4 4 4 3 2 1 1 4 4 4 6 8 11 9 6 3 4 5 3 4 3 1 3 3 5 7 6 6 5 5 8 9 7 7 7 8 8 7 7 7 9 11 12 12 13 14 15 15 16 17 17 17 16 15 14 14 14 14 15 16 18 19 20 21 21 23 23 24 24 23 22 21 21 23 24 24 22 22 22 23 23 23 22 21 21 21 21 20 25 26 19 19 22
5 3 3 4 3 4 4 3 2 2 1 0 3 5 8 11 13 10 7 4 3 5 4 3 3 1 3 3 3 5 7 8 7 8 9 9 8 7 8 8 7 7 6 7 9 11 12 12 13 13 14 15 16 17 17 16 16 15 14 13 13 14 15 17 17 18 18 19 20 21 22 22 21 19 19 19 19 22 23 22 19 20 20 21 20 21 22 20 20 21 23 20 23 27 22 18 22
5 3 3 3 2 3 3 2 1 2 1 1 2 4 8 11 11 8 6 5 4 5 5 4 3 2 3 4 5 7 8 8 8 9 8 9 9 9 9 8 7 7 6 6 8 10 11 11 12 13 13 15 16 17 17 16 15 14 14 13 14 15 15 16 17 17 17 18 20 21 22 22 19 18 19 18 18 21 21 21 20 20 19 18 18 17 20 18 19 21 23 22 22 26 25 20 22
4 3 2 2 2 4 3 0 0 1 2 3 3 5 8 9 7 7 7 5 4 5 6 5 4 6 5 5 7 7 7 8 9 8 7 10 11 10 10 8 8 7 5 6 7 8 9 11 12 12 13 14 15 16 16 15 15 15 14 14 14 14 15 16 16 17 18 19 21 22 24 22 19 18 18 18 19 22 21 21 20 18 17 16 16 16 18 18 18 20 23 22 21 23 26 24 24
3 3 2 3 4 2 1 2 2 2 2 2 2 5 7 8 5 4 5 4 5 5 6 5 4 6 5 6 7 7 7 8 9 7 7 11 12 11 11 9 9 8 6 6 6 7 8 10 11 12 12 13 15 15 16 15 16 16 15 14 14 14 14 15 16 17 18 20 22 23 25 23 21 19 19 21 22 26 24 19 18 16 14 15 16 16 16 18 19 20 24 24 20 20 24 27 28
2 2 3 4 3 3 4 4 4 3 2 2 3 6 7 8 5 3 5 5 6 6 7 7 3 3 3 4 6 7 8 9 8 7 7 11 12 11 11 9 9 9 7 6 6 7 8 9 10 11 12 13 14 14 16 15 16 16 15 14 13 14 14 15 16 17 18 19 21 22 24 23 21 19 20 22 25 28 23 18 19 17 13 14 15 16 17 17 19 19 23 25 20 20 22 26 30
2 2 5 3 2 3 4 4 4 1 3 4 5 8 9 8 6 5 7 6 6 5 5 8 6 3 3 4 6 9 10 10 8 6 8 11 12 12 11 9 9 10 8 7 7 8 7 8 10 11 12 13 13 14 15 15 15 15 15 14 14 14 14 15 15 16 18 18 20 21 23 22 19 18 20 21 24 26 22 18 17 14 14 16 17 18 17 16 17 17 22 26 20 20 21 24 29
2 3 5 3 2 3 5 2 2 3 3 6 6 10 11 8 5 5 6 5 6 6 4 7 7 4 5 5 7 11 10 9 8 7 9 11 12 11 10 9 10 10 9 9 9 9 9 9 10 12 12 13 13 13 14 15 15 15 15 15 14 14 14 14 15 15 16 18 19 21 22 20 18 19 20 20 22 25 22 16 14 13 14 16 19 19 16 14 16 16 20 27 22 20 20 22 27
3 3 4 4 2 2 4 2 3 5 4 5 8 12 11 7 6 6 6 5 6 7 5 8 9 4 3 5 5 8 7 7 8 8 10 11 11 10 10 9 10 11 10 11 11 11 11 11 11 11 12 12 13 13 14 15 15 15 15 15 14 14 14 14 14 15 15 17 18 20 22 18 17 19 19 19 20 25 20 13 12 13 15 17 18 16 15 14 15 15 18 25 22 20 19 20 25
3 3 4 3 2 1 3 3 3 4 4 5 10 13 9 6 8 6 7 7 6 8 9 10 11 9 8 8 8 10 7 7 7 9 11 11 11 11 10 9 10 11 10 11 12 13 13 12 11 11 12 12 13 13 14 14 14 15 15 15 14 14 14 14 14 14 15 17 18 20 21 18 16 18 18 18 20 23 18 11 11 12 15 17 20 16 11 14 13 15 16 19 20 18 17 19 23
2 3 4 2 3 3 3 4 4 4 4 5 11 13 7 4 8 7 7 9 9 10 12 13 13 14 13 11 10 10 9 8 9 10 11 11 12 12 11 10 10 10 11 12 12 13 13 13 12 11 12 12 13 14 14 14 14 14 14 14 14 14 14 14 14 13 14 16 17 19 21 18 15 17 18 19 20 21 18 12 9 11 15 15 15 17 8 13 13 14 16 16 18 17 16 19 23
2 3 3 1 4 3 4 5 5 4 3 8 12 15 9 3 8 8 5 9 12 13 16 16 15 15 14 12 10 11 11 10 11 11 11 12 13 12 11 10 9 10 11 12 12 13 13 12 11 10 11 12 13 14 14 14 13 13 14 14 14 14 14 14 14 13 14 15 17 19 20 17 14 16 19 20 20 19 18 14 10 13 15 14 12 13 9 8 13 15 15 14 18 18 17 21 23
3 3 3 3 5 3 2 3 5 3 4 11 13 14 10 4 7 7 4 7 8 11 15 17 18 16 13 13 13 14 13 12 13 12 13 13 13 12 11 10 11 11 13 13 13 13 13 12 11 10 11 12 14 14 14 14 13 13 13 13 14 14 14 14 14 13 14 15 17 19 19 16 14 16 18 20 20 17 18 15 14 16 12 14 13 10 9 1 9 15 16 15 19 19 19 23 24
2 4 2 5 6 3 0 1 3 6 8 13 11 10 10 6 7 7 5 6 6 10 14 14 17 16 11 12 15 16 16 14 14 13 14 14 13 13 12 11 12 13 15 15 14 13 13 12 11 10 11 12 13 14 14 14 13 13 13 13 14 13 14 14 14 13 14 15 16 19 18 15 15 16 16 19 19 16 17 17 16 14 8 11 15 11 10 8 2 7 15 18 20 22 21 22 23
2 4 3 6 5 4 1 2 2 6 11 14 10 7 6 6 7 8 5 3 7 14 18 15 14 13 10 11 13 16 17 15 15 15 15 14 14 14 12 13 14 15 16 15 14 13 12 11 10 10 11 12 12 13 13 13 12 12 12 12 13 13 13 14 14 13 13 14 16 18 18 15 14 14 15 17 17 17 18 19 19 14 8 9 13 14 12 9 9 6 6 15 20 23 21 19 22
4 1 2 4 6 3 3 4 5 9 12 11 9 6 5 5 7 11 9 5 7 9 11 12 10 8 8 9 9 12 15 15 15 15 15 16 15 13 13 13 14 15 15 15 13 11 10 10 11 11 11 11 12 13 13 13 13 13 12 12 12 12 13 13 14 13 13 13 14 17 17 15 13 12 13 14 17 18 19 19 21 16 10 10 12 13 13 10 8 10 7 5 13 17 17 20 24
3 1 1 4 6 3 6 5 5 9 10 9 8 6 5 4 7 11 14 18 17 9 6 6 6 5 8 9 9 10 11 13 14 15 16 14 12 12 12 13 14 14 13 13 11 10 10 11 11 11 10 11 11 12 12 13 13 13 13 12 12 12 12 13 13 14 14 13 13 15 17 17 13 12 13 13 15 16 17 18 19 17 13 13 13 12 11 10 8 8 8 6 5 10 18 25 24
4 1 0 3 4 5 8 6 5 6 7 7 5 4 5 5 5 7 16 25 23 15 10 9 8 8 11 11 11 10 10 12 13 13 12 11 10 10 12 12 12 12 11 11 11 10 11 12 12 12 11 11 12 12 12 12 13 13 12 12 12 12 13 13 13 14 15 13 13 15 17 18 15 12 12 13 14 15 15 17 18 16 14 13 13 12 10 11 11 9 8 6 6 11 23 27 23
5 3 3 4 3 6 8 5 4 3 3 4 4 6 7 7 6 10 21 25 19 15 13 13 13 13 14 12 11 11 10 10 10 9 8 8 9 10 11 12 11 11 10 11 11 11 11 12 13 12 12 12 12 12 12 12 12 13 12 12 12 13 13 13 13 14 15 13 13 14 15 18 17 14 13 13 14 16 15 15 18 17 15 13 12 12 9 11 12 11 10 6 8 16 26 25 21
3 6 7 6 5 6 6 3 3 2 3 3 4 6 7 6 6 12 18 14 10 12 13 14 14 15 15 12 11 11 10 9 7 7 7 8 9 10 10 11 11 10 11 10 10 11 11 12 12 12 13 13 13 12 12 12 12 12 12 12 12 13 13 13 14 14 14 14 13 13 14 17 18 16 14 13 13 15 16 16 17 18 16 12 12 12 9 10 10 11 11 10 12 15 24 23 18
9 12 10 7 6 4 3 2 1 2 5 5 4 6 7 4 3 7 8 6 4 7 11 14 14 14 13 11 11 10 10 8 6 7 9 9 9 9 10 10 10 10 10 10 10 10 10 11 12 12 12 13 13 13 13 13 13 12 11 12 12 13 13 14 14 14 14 14 13 13 13 15 17 17 16 16 15 13 15 17 16 18 18 15 14 14 12 11 9 10 9 12 14 12 17 19 14
16 15 8 5 2 2 3 3 3 3 3 5 5 6 7 2 2 9 11 6 5 3 5 10 12 12 10 10 10 9 9 7 6 8 9 9 9 9 9 9 10 10 10 10 10 9 9 10 11 11 12 13 14 13 13 13 13 12 11 11 12 13 13 14 14 14 14 14 13 13 13 13 15 16 17 16 16 15 15 17 17 17 18 17 16 16 14 12 9 8 8 11 14 13 13 15 12
12 8 5 3 5 1 3 3 3 2 2 3 3 5 5 3 7 11 9 7 7 5 6 7 9 10 9 9 8 6 7 7 7 8 9 8 8 9 9 9 9 10 11 11 10 9 9 9 10 10 11 13 14 14 14 13 13 13 12 11 12 12 12 13 14 15 15 14 14 13 13 12 13 14 16 16 16 16 15 14 15 16 15 15 16 15 14 12 10 8 7 9 14 16 12 11 10
4 1 4 1 6 3 2 1 2 2 2 2 2 3 5 6 12 10 5 5 6 7 8 8 9 9 9 9 8 6 5 6 7 8 8 8 8 8 8 8 8 9 11 11 10 9 9 9 9 9 10 11 12 13 13 13 13 13 12 12 12 12 12 12 13 15 16 15 14 14 13 12 12 12 14 15 15 15 15 13 12 13 14 14 14 13 13 12 10 9 8 9 13 14 10 9 7
1 1 2 2 2 3 3 1 0 1 1 2 2 2 6 7 9 6 5 6 6 9 9 9 10 10 10 9 8 8 6 6 8 7 7 8 8 8 8 8 8 9 10 11 11 10 10 10 10 9 10 11 11 12 12 12 12 12 12 12 11 11 11 11 12 14 15 15 15 14 14 13 12 12 12 12 14 14 14 14 12 12 12 12 11 11 13 13 11 8 9 9 9 10 9 9 9
2 1 2 4 1 4 6 1 1 1 2 2 2 2 6 8 9 4 6 7 7 10 11 10 11 10 9 9 9 10 8 7 8 7 8 8 8 8 7 8 8 9 10 10 11 10 10 10 10 10 11 12 12 12 13 13 12 12 11 11 10 10 10 10 11 12 14 15 16 15 15 14 13 12 11 11 11 12 13 14 13 11 10 10 9 9 9 11 12 10 9 8 6 6 7 9 10
4 2 1 3 0 3 5 2 1 2 1 3 2 3 4 4 5 2 4 7 8 12 14 13 12 10 9 9 9 9 8 7 7 7 8 8 8 8 8 8 8 9 9 9 9 9 9 10 10 10 11 11 12 13 14 14 14 13 12 11 11 10 9 9 8 10 12 13 14 15 15 15 14 13 12 11 10 10 11 12 13 12 10 9 8 8 7 8 10 11 9 7 7 5 4 5 8
3 3 0 3 2 2 3 2 1 2 1 3 2 4 7 7 7 8 7 8 10 14 18 16 14 12 9 9 10 9 8 8 7 7 7 8 7 7 8 8 8 9 8 7 7 7 7 8 9 9 10 10 11 12 12 13 14 14 14 13 12 12 11 9 8 8 9 10 12 13 14 15 15 14 12 11 10 9 9 10 11 11 10 9 9 9 9 8 7 9 9 8 7 6 5 4 6
2 0 1 2 3 2 3 2 1 3 2 4 2 5 11 11 12 17 16 11 14 19 20 19 17 14 10 9 9 9 9 8 7 7 6 7 7 6 7 7 7 7 6 5 5 5 6 6 7 8 8 9 10 10 11 12 12 13 14 14 15 14 14 12 11 9 7 7 9 10 12 14 15 15 14 12 10 9 8 8 8 8 9 9 9 9 9 9 7 6 7 8 7 5 5 5 6
5 4 3 2 2 4 5 4 2 2 3 5 5 6 10 11 11 14 16 12 14 19 20 20 19 17 12 9 8 8 8 7 7 6 6 7 6 4 4 4 5 5 4 4 5 5 5 5 6 7 8 9 9 10 11 11 11 12 13 14 14 15 15 14 13 11 8 7 7 8 9 11 13 14 15 14 11 10 8 8 7 6 7 7 8 8 8 8 8 6 4 5 6 6 5 6 7
5 4 2 3 3 5 5 3 3 2 2 5 4 4 9 12 11 13 14 9 10 16 18 19 20 17 14 10 9 8 8 8 7 5 5 6 6 4 3 2 3 4 4 5 6 6 6 6 6 7 8 9 10 10 11 11 11 11 12 12 13 13 14 14 14 13 11 9 7 7 7 8 10 11 12 14 13 11 10 8 7 6 5 5 5 5 6 6 7 7 6 4 3 3 3 4 6
3 4 2 3 3 5 4 1 4 6 4 4 3 6 11 10 9 12 10 4 7 12 15 16 16 14 14 13 11 9 9 9 7 4 4 6 6 5 4 3 3 4 5 6 7 7 7 7 7 8 8 9 10 10 10 11 11 11 11 12 12 12 13 14 14 14 13 11 10 8 7 7 8 8 9 11 12 12 12 10 8 7 5 4 3 3 4 5 5 4 4 5 4 2 0 2 3
3 3 2 2 3 4 5 2 5 6 3 4 5 7 11 10 8 10 5 3 3 6 10 11 11 10 11 11 10 8 8 8 6 3 3 5 6 7 6 5 5 5 5 6 7 8 8 8 9 9 9 9 10 11 11 11 11 11 11 11 12 12 12 13 13 14 13 13 12 11 9 8 8 8 8 8 9 10 11 12 11 10 8 5 3 3 3 3 3 3 2 3 4 4 4 3 3
3 2 2 3 3 3 3 3 6 5 1 4 5 5 8 7 6 6 4 1 2 3 4 7 8 8 7 7 7 7 8 7 5 3 2 4 5 7 7 7 7 6 6 6 7 8 9 9 10 10 10 10 10 11 12 12 12 12 12 12 12 12 12 12 13 13 13 13 13 12 11 10 9 9 8 8 8 8 9 10 11 12 12 10 7 5 3 3 3 3 3 3 3 3 4 4 5
2 2 4 2 2 1 4 4 7 6 1 1 4 5 5 5 5 6 4 3 2 2 2 5 7 7 6 6 6 7 7 7 6 4 3 3 4 6 8 8 8 8 8 8 9 9 10 10 11 11 11 11 11 11 12 12 12 13 13 13 13 13 12 12 13 13 13 13 12 12 12 11 10 10 10 9 8 8 8 8 9 10 11 12 12 10 7 5 4 4 4 4 4 5 5 5 6
3 2 4 2 2 2 4 5 6 4 3 2 4 4 3 5 5 5 5 5 5 4 4 6 7 7 8 8 6 6 6 6 7 6 4 2 4 6 7 7 8 8 8 9 10 10 11 12 12 12 13 13 13 13 12 13 13 13 14 14 14 14 13 12 13 13 13 12 12 11 11 10 10 10 10 10 10 9 9 9 9 9 9 10 11 12 12 11 9 7 6 5 5 6 6 7 8
1 2 4 4 3 2 3 5 4 2 1 3 3 4 2 5 5 6 5 6 7 6 5 6 6 7 9 9 7 6 5 5 5 4 2 2 5 6 7 8 9 9 9 9 9 10 10 11 12 13 13 14 14 15 14 13 13 13 13 14 14 14 14 13 13 14 14 13 12 12 11 10 9 9 9 10 10 10 9 9 9 9 9 10 9 10 11 12 13 12 12 10 9 8 7 8 9
2 2 4 4 4 2 1 3 3 1 3 4 5 4 2 3 5 6 5 4 7 7 6 7 4 4 5 4 4 4 3 2 1 1 2 3 5 7 7 8 9 9 9 9 9 9 10 11 12 12 13 14 15 16 15 13 13 13 13 13 13 13 14 14 14 15 14 15 14 13 12 12 11 10 9 9 10 10 10 9 9 10 10 11 11 10 11 11 12 12 13 14 14 14 13 11 10
3 2 3 2 3 3 3 4 2 2 1 3 6 4 1 4 6 6 4 2 4 6 4 5 4 1 0 1 1 2 2 2 3 3 4 5 6 7 8 8 8 8 8 9 9 9 9 10 11 12 12 13 15 15 14 12 12 12 12 13 13 12 13 14 15 15 14 15 15 14 13 13 13 12 11 9 9 9 10 10 10 9 10 11 11 12 12 12 13 13 13 14 15 16 17 17 16
2 2 3 3 3 3 3 4 2 3 3 2 6 4 2 4 5 4 3 2 2 3 2 4 3 4 4 4 4 3 3 3 3 3 4 5 6 7 7 7 7 7 7 8 8 8 8 9 9 10 11 12 14 15 13 11 11 11 11 11 12 12 12 14 14 15 14 15 16 15 14 13 13 13 12 11 10 9 9 10 10 10 9 10 11 11 12 13 14 15 15 16 16 16 17 19 19
0 3 4 4 4 4 3 3 2 3 2 3 5 3 1 2 5 3 2 2 5 5 2 4 0 4 6 6 6 5 4 3 2 3 3 4 5 5 6 7 7 7 8 8 8 8 8 9 9 9 10 11 13 13 12 11 10 11 11 11 12 12 12 13 14 14 14 15 16 15 15 14 14 13 13 12 11 11 10 10 10 10 10 10 10 11 12 13 14 15 17 17 17 18 18 19 20
2 3 3 2 3 3 3 4 4 3 2 4 4 4 1 1 4 5 4 4 5 6 5 5 5 5 7 7 6 5 4 3 3 3 3 3 4 5 6 7 8 7 7 7 8 8 8 9 10 9 9 10 10 11 11 11 11 11 11 12 12 12 12 13 14 14 14 14 15 15 14 14 14 13 13 13 12 12 12 12 11 11 11 11 12 12 12 13 14 15 16 17 18 19 19 20 21
4 3 3 2 2 3 1 3 2 1 3 2 2 3 1 4 6 6 6 6 6 8 8 9 9 8 8 7 6 5 5 5 4 4 5 5 6 7 8 9 9 9 9 9 8 8 8 9 9 9 9 10 11 11 11 11 12 12 13 13 13 13 14 14 14 14 14 14 14 14 14 14 14 13 13 13 12 13 13 14 14 13 12 12 12 13 14 14 15 16 16 17 18 19 20 21 23
2 2 2 2 2 3 1 4 2 2 3 1 2 3 1 3 4 5 7 6 6 8 8 9 9 9 8 7 6 6 5 4 4 5 5 6 8 9 10 11 12 13 13 12 11 11 10 10 10 11 11 12 12 12 12 12 13 14 14 15 15 15 15 16 16 16 15 15 15 15 14 14 14 13 12 12 12 12 13 14 14 14 14 14 14 14 14 15 16 17 18 18 19 19 19 21 22
1 3 3 2 3 3 2 3 2 2 3 3 4 2 3 1 1 4 7 5 3 5 7 8 8 8 7 6 6 6 4 3 4 4 6 7 8 10 11 13 14 15 15 14 13 13 12 12 12 13 13 13 13 13 14 14 14 15 15 16 16 16 17 17 17 17 17 17 17 17 15 14 13 13 12 12 12 12 13 13 14 14 14 14 14 15 15 15 16 18 19 20 20 20 21 22 22
2 2 3 2 2 4 2 2 4 2 2 3 2 3 4 1 2 5 4 1 2 4 6 7 7 7 7 6 6 5 2 1 3 4 5 7 8 10 12 13 13 14 14 14 14 14 13 14 14 14 15 15 16 16 16 16 16 16 16 17 17 17 17 18 17 17 18 18 18 19 18 16 15 14 13 13 13 13 13 14 14 14 15 15 15 15 16 16 17 18 19 20 21 20 22 23 23
1 1 0 1 3 5 4 1 1 3 1 3 1 2 5 3 2 5 5 1 2 2 3 5 6 7 6 6 6 4 2 0 2 4 5 7 8 9 11 11 11 12 13 13 13 14 14 14 15 15 15 16 16 17 17 17 17 17 18 18 18 19 19 20 20 19 19 18 18 19 20 19 18 17 17 16 16 15 15 15 15 15 15 16 16 16 17 17 17 19 20 20 21 21 22 24 24
1 1 2 2 2 3 4 1 3 4 1 4 2 2 5 2 1 4 2 2 5 5 3 3 6 6 6 6 6 4 3 2 3 4 7 7 7 8 9 9 10 11 12 12 13 14 15 15 16 16 16 17 17 17 18 18 18 19 19 19 19 20 20 20 20 20 20 19 19 18 19 20 20 20 20 20 19 19 18 18 18 18 17 18 18 18 19 19 20 21 21 22 22 23 24 25 25
1 2 1 1 2 1 2 2 1 2 1 4 4 4 3 3 3 3 4 7 8 6 4 3 6 7 8 8 7 5 4 4 4 6 7 7 7 7 7 8 9 10 11 11 12 14 14 15 16 17 18 18 19 19 19 19 20 20 20 20 20 20 20 19 20 20 19 19 19 18 18 18 19 19 20 20 21 21 21 21 21 22 21 21 21 21 22 22 23 24 24 24 24 24 26 27 26
1 1 2 1 2 3 1 1 2 1 1 2 4 4 3 5 5 6 8 9 8 7 5 5 9 9 9 8 7 6 6 6 6 8 8 7 7 7 6 7 8 9 10 10 12 13 15 16 17 18 19 19 19 18 18 19 20 21 21 21 21 20 19 19 19 19 19 19 19 18 18 18 18 19 19 19 20 20 21 21 22 23 23 23 23 23 23 24 25 25 25 25 25 25 27 28 28
1 1 1 1 0 2 1 1 1 3 2 2 1 3 5 6 4 6 7 7 8 9 7 8 11 10 8 7 7 7 8 7 8 9 9 7 7 6 6 6 8 8 9 11 13 14 16 17 18 18 18 18 18 18 18 19 20 21 22 22 22 22 21 20 19 19 19 19 19 19 19 18 18 19 18 18 18 19 19 20 21 22 22 23 23 24 23 24 24 25 25 25 26 25 26 28 28
3 3 2 3 2 2 2 2 2 2 2 3 3 2 7 6 3 5 6 5 8 12 12 12 13 11 8 7 6 6 7 7 8 9 9 8 7 5 5 6 7 7 9 11 13 14 16 16 17 17 17 17 17 18 18 19 20 21 22 23 23 23 23 23 22 21 21 21 21 21 21 20 20 20 20 20 19 19 19 20 20 20 21 21 22 22 23 23 24 25 25 25 25 26 26 27 28
Wind_Direction
159 174 201 205 255 304 354 359 74 9 64 85 352 84 247 247 134 97 119 202 355 221 178 97 51 63 95 140 179 195 200 188 188 153 226 286 324 321 320 321 321 323 330 331 321 331 340 338 336 338 342 346 348 348 348 350 352 351 352 349 349 348 346 344 342 342 342 341 338 339 337 333 330 324 324 321 317 313 312 308 304 301 295 282 274 270 267 252 229 227 233 234 233 240 237 227 218
168 189 206 210 245 97 90 48 85 3 54 71 295 161 206 350 56 138 195 217 204 189 173 126 55 74 133 203 189 309 256 220 213 226 268 303 312 310 315 314 315 321 327 323 323 339 344 343 338 339 346 350 352 352 353 354 354 355 353 351 350 348 346 344 342 342 342 341 338 340 338 333 328 323 323 322 317 313 310 307 306 303 301 295 286 275 269 259 233 223 227 231 232 234 234 230 223
176 193 194 211 277 47 94 59 75 83 90 204 264 259 183 86 146 193 206 191 163 164 176 209 252 270 261 227 218 229 239 222 218 244 279 299 302 303 307 309 313 320 322 322 333 345 348 347 340 342 348 350 351 352 356 356 357 357 353 351 349 346 345 342 341 342 342 341 340 340 337 332 328 324 322 319 316 314 309 308 309 304 299 297 292 284 276 267 244 224 221 231 232 225 224 226 224
174 179 160 194 18 33 62 61 101 114 143 204 226 281 226 155 182 204 190 166 162 175 203 230 242 249 256 220 219 233 237 226 224 247 286 301 302 298 302 310 312 317 322 328 341 348 349 346 344 346 347 348 349 353 358 358 359 357 352 349 346 345 343 342 342 342 342 341 341 338 334 329 325 322 319 318 316 311 307 305 303 298 293 289 287 285 279 275 258 229 219 226 229 227 223 220 222
171 169 138 31 30 34 71 71 71 97 182 187 164 268 232 172 179 195 180 166 187 195 213 219 224 246 252 234 215 239 233 220 230 251 294 309 303 298 305 309 308 319 328 334 345 349 348 346 349 347 345 347 350 356 360 358 358 354 350 347 344 343 342 343 342 341 341 339 338 334 330 326 322 320 315 313 312 309 305 300 297 292 289 283 279 279 274 275 266 235 221 224 226 233 228 218 220
168 161 90 36 48 57 79 71 59 78 223 168 154 232 206 190 177 175 167 167 198 196 215 214 220 253 257 243 224 249 250 229 245 264 307 320 314 310 309 307 313 331 332 338 352 351 349 348 350 348 346 348 352 358 359 357 355 351 348 344 341 341 341 342 341 339 338 336 334 330 327 323 320 317 312 308 307 307 305 298 291 284 280 276 268 269 270 271 266 237 223 227 226 231 235 227 221
169 151 66 54 55 42 88 113 145 152 275 166 169 187 191 197 173 161 161 170 214 212 221 221 221 242 256 252 236 253 253 245 255 278 312 326 329 325 322 327 334 338 335 350 1 355 350 350 350 348 347 347 353 358 359 357 353 349 344 339 338 338 340 341 339 337 334 333 329 326 322 318 318 316 313 311 309 309 307 303 294 288 284 279 269 258 262 267 263 239 223 227 227 227 235 238 224
152 123 66 80 52 33 97 106 151 174 359 183 168 170 183 184 169 160 174 191 213 213 208 204 205 216 252 242 245 255 246 248 256 273 307 331 338 340 345 345 337 337 348 3 7 357 350 351 349 347 347 348 354 357 357 356 352 348 341 338 337 337 339 339 336 332 330 328 325 323 320 321 324 324 320 318 318 317 314 311 302 298 291 287 281 254 249 262 261 241 223 222 226 225 228 239 227
121 81 56 82 79 40 63 65 54 179 255 287 141 166 175 170 173 175 192 220 217 206 205 187 187 225 271 262 261 262 251 252 256 272 305 335 344 348 347 334 328 346 359 1 5 359 349 346 346 345 347 351 354 354 353 354 353 348 342 339 338 338 338 336 332 330 329 328 327 326 328 331 333 330 325 322 323 324 320 315 303 295 293 291 292 263 243 252 257 241 224 219 222 225 225 232 228
98 56 82 81 80 56 24 18 12 173 219 233 177 177 172 166 176 184 193 214 206 197 201 200 225 244 275 285 266 264 256 254 260 274 307 339 349 345 336 322 325 344 351 350 356 357 346 342 343 342 348 353 352 350 348 350 354 352 345 342 340 338 335 332 331 332 332 334 333 333 336 337 337 335 331 328 330 329 323 319 309 295 294 292 287 274 253 246 254 244 224 219 221 225 226 227 224
78 32 87 74 71 104 203 201 248 250 235 266 208 188 181 182 176 184 192 192 205 203 196 199 238 247 268 281 265 265 253 255 268 277 304 339 346 335 328 321 324 329 332 339 345 352 345 340 339 340 348 354 350 344 343 348 355 353 346 345 341 335 332 331 333 335 337 339 337 336 338 338 339 340 337 336 335 332 326 325 323 311 303 296 281 273 264 247 251 249 225 217 219 227 230 225 221
67 3 71 84 103 172 192 166 207 237 284 292 213 202 193 193 190 200 194 194 213 212 214 207 228 260 265 271 262 264 254 258 271 278 301 333 336 326 325 322 317 314 319 328 337 351 345 340 336 339 348 351 347 340 339 347 354 352 346 345 340 335 333 333 335 336 340 342 339 339 340 340 342 343 342 341 337 335 332 331 328 323 316 307 293 275 266 248 246 250 226 214 217 227 232 226 219
80 155 83 85 126 138 147 144 192 198 301 248 206 202 194 195 209 219 201 212 215 201 228 216 225 265 250 265 263 253 251 258 268 280 299 323 324 321 323 317 310 307 318 329 340 350 345 343 338 341 347 346 342 337 338 344 351 350 347 347 342 339 335 334 337 337 342 346 342 341 343 342 344 345 344 341 337 338 338 333 327 327 324 308 300 285 268 248 241 247 227 212 216 224 230 228 217
76 143 97 103 90 115 144 129 177 163 262 240 203 189 189 202 213 209 197 218 223 208 241 221 221 261 256 255 255 250 248 256 268 285 296 311 318 318 318 315 311 311 324 333 342 347 350 353 346 344 342 340 337 336 340 342 348 348 348 349 345 340 335 336 337 337 345 348 345 344 346 344 342 346 344 338 337 342 340 335 336 341 334 312 301 290 266 245 237 243 227 211 214 220 226 227 215
67 100 97 113 80 90 170 168 149 162 240 227 188 184 185 207 207 214 213 217 236 224 233 223 219 241 247 223 251 272 266 266 272 283 293 306 316 316 318 321 315 315 327 336 342 344 353 357 348 343 337 337 336 337 343 342 344 346 348 349 345 342 337 338 335 337 348 351 349 347 349 343 339 345 341 337 341 346 344 343 353 356 347 335 328 305 256 236 232 232 221 210 212 217 223 222 210
54 81 82 91 128 143 183 189 134 144 245 207 179 181 182 211 204 222 231 222 244 231 227 227 227 238 246 248 284 304 294 282 278 284 295 305 316 320 321 319 313 319 334 338 341 344 351 354 347 341 337 338 336 339 345 344 343 343 347 346 345 344 340 339 334 339 349 352 352 350 351 344 336 341 339 343 351 353 352 354 5 6 355 346 349 336 258 229 231 219 208 206 209 214 222 214 207
51 76 74 69 157 178 186 179 164 165 232 203 184 186 182 217 210 220 234 232 244 241 240 242 244 247 254 271 293 300 293 287 282 288 298 306 316 322 318 311 314 327 339 338 340 343 348 351 347 341 338 338 338 343 345 343 342 342 345 346 347 347 343 341 336 340 350 354 355 354 354 349 340 340 345 355 359 359 359 5 11 2 356 341 339 345 296 226 223 207 196 202 203 208 215 205 205
70 96 93 149 178 187 186 182 184 159 183 193 191 192 186 205 210 213 235 241 246 250 251 249 252 251 252 268 276 278 281 281 281 290 299 307 317 318 309 310 323 334 338 336 337 342 345 348 345 341 340 341 344 345 343 342 341 342 345 346 350 350 345 343 340 342 351 356 359 359 358 356 351 349 356 359 359 5 1 5 5 347 355 356 345 354 341 231 210 199 193 200 200 200 204 202 205
81 100 100 210 201 188 190 188 190 171 183 183 185 194 197 219 208 200 226 247 247 253 255 249 251 251 245 252 258 265 269 273 278 288 296 305 315 309 307 317 329 335 336 333 334 338 341 344 344 344 344 345 347 343 341 341 341 344 345 348 353 351 348 346 343 347 354 356 2 4 1 2 1 360 4 359 358 8 1 0 358 341 356 15 4 10 11 332 197 200 197 197 196 197 202 203 202
67 93 120 236 203 162 91 118 196 212 190 170 175 195 206 223 202 194 222 262 266 246 246 240 244 250 245 242 247 258 264 268 275 284 293 302 310 305 309 322 328 333 333 330 331 334 336 342 346 348 349 347 346 342 340 340 341 346 344 349 354 352 351 348 347 353 357 357 5 7 4 6 4 4 7 2 1 7 4 5 4 347 355 20 10 19 34 38 72 194 195 194 193 198 205 200 193
68 102 174 228 174 129 138 95 116 191 175 168 174 179 202 215 203 212 213 282 276 249 248 242 244 258 253 240 242 251 259 265 272 281 289 299 306 304 310 320 326 330 328 326 329 331 335 346 351 353 352 349 344 341 339 339 343 346 345 349 352 353 354 351 351 358 359 358 9 10 9 10 4 3 6 8 10 11 13 14 17 7 353 31 28 19 25 32 28 41 172 193 197 200 200 189 180
78 71 243 189 158 124 144 117 110 161 166 169 172 170 208 214 216 228 213 220 249 257 265 248 245 261 255 251 251 251 256 262 270 279 289 299 304 304 312 320 327 329 325 328 331 331 338 351 356 355 352 347 343 340 338 339 346 347 346 348 350 354 356 354 355 1 3 2 10 12 14 15 6 2 1 11 16 13 17 20 25 26 13 24 25 12 15 26 36 42 55 158 194 198 185 171 168
96 304 325 154 176 162 148 133 123 161 171 169 172 195 226 230 250 248 232 237 246 263 291 249 237 267 269 272 275 269 264 266 272 283 291 298 304 311 319 324 328 327 327 334 335 334 345 356 354 350 350 347 344 339 337 341 346 347 347 348 350 355 357 357 359 5 6 4 11 13 17 20 13 3 357 9 19 14 17 22 26 33 28 9 7 20 25 27 43 53 53 79 152 182 165 159 160
109 168 40 132 184 169 155 149 135 159 178 176 182 220 239 237 262 277 253 251 256 262 263 248 252 279 281 276 280 286 284 280 283 288 293 299 310 317 321 326 327 325 334 342 339 339 348 354 349 344 346 348 344 338 338 342 344 346 348 349 352 356 357 358 2 8 7 6 11 14 19 23 18 9 1 8 23 22 17 24 28 33 36 22 12 21 30 39 45 49 56 79 112 150 154 153 157
82 150 165 121 140 154 151 156 158 176 194 193 219 243 254 254 270 285 271 270 270 261 253 247 254 270 273 273 280 290 292 288 288 291 299 309 315 318 322 326 326 328 339 344 340 340 346 348 343 339 342 345 342 340 341 342 343 345 348 352 356 358 357 358 5 8 6 6 11 14 19 24 22 16 7 5 18 24 19 26 32 35 38 35 23 11 19 47 50 48 46 71 120 147 153 151 158
100 137 147 128 125 141 147 165 181 227 246 241 256 264 265 271 294 280 275 292 283 250 241 242 250 260 263 267 277 288 289 284 287 303 315 319 317 320 326 327 329 336 341 343 338 335 342 343 338 337 340 341 340 342 344 341 341 344 348 354 360 2 359 359 6 7 3 6 12 16 19 23 24 22 15 5 12 23 21 25 37 42 40 38 35 22 16 32 57 64 46 68 103 139 155 152 157
124 125 125 120 126 139 152 197 236 260 267 258 247 272 272 273 324 266 269 354 338 245 233 235 240 248 254 264 276 286 287 286 298 309 318 323 323 325 331 333 336 343 342 341 336 332 339 337 334 338 339 340 342 345 345 341 340 342 347 355 2 4 1 0 5 6 2 4 12 16 19 24 24 23 23 15 15 23 23 26 38 47 46 46 45 39 28 21 57 82 68 87 99 121 154 156 155
122 119 104 88 102 183 206 223 248 251 269 262 245 272 283 276 232 249 260 293 300 266 229 229 234 243 252 264 275 283 290 302 304 303 315 324 326 327 335 341 343 348 347 344 338 332 333 332 333 337 339 341 344 346 346 344 340 339 346 354 0 3 2 1 3 5 2 2 9 16 17 23 26 23 25 22 18 20 25 30 36 43 46 49 48 46 42 28 38 75 93 113 121 123 142 158 155
125 115 95 18 4 359 233 234 237 242 276 287 294 301 292 216 223 251 273 266 242 232 235 233 236 246 253 260 268 277 293 306 299 303 320 325 323 325 335 343 345 349 348 346 341 336 332 331 332 335 339 343 345 346 345 346 343 341 346 351 357 360 2 2 2 4 4 1 4 13 15 19 27 26 25 25 22 19 24 32 37 38 39 48 54 51 49 40 38 62 92 119 137 132 125 144 154
133 53 106 36 0 4 284 250 242 272 283 287 11 322 286 246 240 248 272 256 224 228 241 242 246 252 254 257 261 268 281 291 300 314 322 324 320 319 332 338 339 344 344 342 339 339 336 331 331 332 337 342 344 343 342 345 345 344 348 351 354 356 360 2 2 2 2 1 1 9 13 14 22 28 26 26 26 23 23 29 38 40 35 42 57 61 59 54 53 66 80 106 138 139 123 126 146
95 346 86 36 1 294 302 347 292 341 306 314 71 261 267 266 267 253 231 233 224 237 248 248 253 257 259 260 261 269 274 279 296 311 314 319 315 314 328 332 333 337 337 337 335 335 334 329 330 329 332 338 340 340 340 342 344 347 349 350 351 352 357 0 1 1 359 1 2 5 9 10 15 23 26 26 27 27 25 25 32 44 42 36 43 57 65 63 63 75 78 85 128 147 139 134 145
25 90 313 345 79 274 301 330 90 126 271 303 110 233 269 266 282 288 220 230 232 245 257 256 257 259 258 260 262 271 279 280 289 300 308 314 311 311 322 326 329 332 330 331 332 334 333 331 332 331 332 337 338 338 339 340 341 347 348 348 348 350 358 3 5 2 359 1 2 4 6 7 10 15 19 23 26 28 28 26 26 35 44 42 35 37 53 64 66 76 85 79 98 144 154 152 157
357 84 236 294 304 296 313 333 95 104 285 290 205 233 280 276 301 353 195 233 243 247 260 262 260 263 261 263 265 271 279 282 290 301 309 311 310 312 317 321 324 327 326 324 332 340 340 339 338 337 338 340 340 340 340 340 340 343 345 345 346 349 356 5 15 11 4 4 2 3 5 5 7 10 11 13 20 28 29 28 27 26 30 37 35 27 33 60 72 77 90 89 82 94 124 161 173
322 25 103 258 250 259 303 308 298 23 325 263 246 234 254 268 290 286 258 252 248 248 261 267 266 266 269 269 263 265 274 280 291 301 310 315 316 314 311 314 316 317 318 319 336 350 351 350 348 346 347 347 347 346 344 343 343 343 344 345 345 348 352 356 12 22 15 10 3 2 5 4 5 7 7 6 10 19 27 30 29 25 23 24 23 23 26 39 70 85 92 97 97 96 98 142 181
190 126 118 304 314 252 258 267 295 11 339 252 251 257 262 272 279 279 281 273 251 250 260 268 269 267 269 269 256 257 266 270 285 300 316 326 325 321 314 308 305 305 304 316 341 358 2 3 357 356 357 356 355 354 352 350 349 348 347 348 348 348 350 351 358 10 14 13 9 5 4 3 2 2 3 4 4 6 16 25 29 28 24 21 17 17 22 25 39 71 93 105 112 122 122 139 169
148 155 152 212 284 271 256 255 274 3 320 266 230 246 274 287 286 284 292 285 253 251 258 262 265 264 262 261 253 252 256 260 277 297 321 335 338 344 337 320 307 300 304 330 353 5 12 13 7 5 3 3 2 359 360 358 356 357 355 353 350 347 348 349 352 357 0 3 10 9 6 5 2 359 357 358 1 1 4 11 18 27 27 23 17 14 19 25 25 26 53 98 116 131 147 160 169
129 120 137 206 229 274 265 263 305 1 329 272 243 263 281 286 287 294 302 289 244 244 250 255 259 259 256 254 253 251 250 257 269 288 325 344 354 5 5 348 329 323 327 344 356 2 7 10 8 5 2 2 2 1 2 3 3 2 1 359 355 349 347 348 350 352 354 354 358 3 3 3 1 359 355 353 354 354 357 2 3 9 16 20 17 11 13 22 27 22 15 25 77 118 141 162 172
107 123 168 254 230 256 259 239 316 8 21 279 328 328 292 287 290 304 311 246 224 241 241 252 259 255 253 253 254 248 245 251 253 271 330 354 2 8 9 4 358 349 342 344 348 352 356 359 359 357 357 357 357 359 0 1 3 3 3 3 0 355 349 349 350 352 354 353 353 354 354 354 355 356 355 352 350 348 350 353 354 355 357 357 357 3 4 8 19 22 14 6 1 4 15 181 189
81 121 161 259 252 274 297 335 331 3 21 277 346 344 297 295 294 308 328 187 246 269 243 254 261 254 256 255 249 232 225 229 227 244 325 1 14 18 16 12 13 10 359 352 350 354 357 359 359 356 353 352 350 352 354 357 359 0 1 2 3 1 355 351 351 352 355 355 355 353 350 348 347 348 350 349 347 345 346 346 346 346 346 343 340 342 340 339 345 350 351 346 339 331 316 290 248
73 115 142 239 295 345 300 317 332 331 254 258 322 324 291 309 313 320 4 195 311 344 253 249 248 255 264 253 233 213 215 221 221 242 313 4 27 35 33 32 29 28 22 13 6 4 4 3 4 2 358 355 351 347 346 348 351 353 356 357 359 1 359 355 353 354 355 357 358 357 355 351 344 340 340 342 343 341 341 341 341 339 338 339 337 332 317 303 303 302 302 299 294 293 290 285 276
348 152 147 217 300 316 251 294 332 325 301 261 334 345 305 331 340 312 333 347 330 352 266 238 236 251 263 254 231 216 223 224 229 259 300 357 28 35 35 37 35 33 30 24 18 13 11 9 6 5 3 360 355 350 345 343 343 346 348 351 353 355 358 356 354 355 355 356 358 359 360 358 350 340 335 335 336 334 334 333 333 332 331 332 333 332 328 316 298 282 279 276 272 270 264 265 266
308 222 168 164 197 229 289 329 350 8 37 340 19 40 300 318 340 289 309 349 325 305 280 252 247 250 251 254 244 230 236 236 247 272 281 313 3 12 15 19 19 19 18 16 17 15 13 12 10 8 6 4 358 353 348 344 343 341 341 345 347 349 353 354 350 351 353 353 355 356 357 360 357 349 339 335 332 329 328 325 323 322 321 322 323 325 325 324 320 311 301 285 269 264 261 262 261
296 219 164 137 128 115 5 7 23 47 350 313 40 94 253 321 331 281 307 337 317 314 304 277 263 250 248 249 251 254 263 266 269 278 277 314 345 351 355 357 358 358 356 356 359 2 4 4 4 5 6 5 1 356 349 345 343 340 338 340 342 343 346 349 345 345 347 347 350 352 349 350 353 352 346 339 334 329 323 318 315 313 312 311 310 311 313 314 317 317 314 309 299 287 275 267 263
249 188 127 109 91 97 71 52 54 290 277 322 11 83 145 308 285 274 306 336 328 335 321 304 293 259 257 251 245 247 250 276 324 23 23 9 358 354 351 349 349 348 344 341 340 342 344 346 348 352 356 356 355 354 349 344 341 340 338 338 342 342 341 344 344 343 343 340 344 348 345 343 342 343 344 338 333 330 325 318 310 305 302 301 302 301 301 301 303 306 307 308 308 305 301 293 284
262 190 124 107 110 131 119 74 24 306 337 321 329 19 93 266 277 305 350 47 345 342 339 340 2 34 309 160 161 149 127 82 63 52 31 12 355 348 345 345 347 343 338 336 334 330 327 329 332 337 343 342 342 344 344 341 337 338 341 339 343 346 341 341 343 345 343 336 338 343 341 341 341 338 338 335 330 327 324 321 314 306 297 292 293 293 294 295 295 295 297 298 299 302 304 302 299
261 154 87 59 73 86 81 71 45 6 50 244 292 352 53 272 287 321 26 87 246 274 310 338 21 80 104 119 126 124 106 85 65 38 13 352 341 338 338 340 340 333 328 327 329 327 324 324 323 327 332 331 330 334 337 338 335 337 341 338 343 347 342 340 343 346 345 337 337 339 336 336 339 338 336 334 331 324 316 315 313 309 302 296 291 287 284 284 285 287 287 288 289 292 294 295 296
187 81 53 39 39 54 62 47 68 57 9 250 276 335 48 299 286 244 185 183 188 188 243 280 247 111 117 116 116 121 113 95 65 29 358 340 336 332 331 330 326 320 315 314 317 319 322 324 326 329 329 325 327 333 337 338 337 337 338 338 340 342 340 339 342 348 348 342 339 339 335 334 334 335 335 335 334 325 315 311 308 306 304 302 298 293 286 281 279 277 277 278 279 281 282 284 287
66 64 57 47 355 21 38 356 33 87 268 263 282 316 58 203 263 238 236 250 196 170 181 203 194 153 130 117 109 110 103 95 82 53 21 360 351 344 344 342 341 339 331 328 327 328 332 335 340 345 342 338 340 344 346 344 341 337 334 337 337 336 336 336 337 343 346 343 342 341 339 338 336 336 335 336 335 327 320 318 315 309 305 303 300 297 293 289 284 278 275 273 272 273 274 275 276
62 63 61 66 346 360 9 314 355 156 247 267 314 325 295 225 244 239 245 252 219 192 171 166 174 159 136 125 120 115 106 100 74 42 23 16 19 17 20 20 19 20 19 16 16 12 10 6 7 9 3 1 2 358 356 351 344 338 335 335 334 332 333 333 332 334 336 335 335 337 342 342 341 341 338 337 335 327 322 321 318 316 313 309 305 300 298 296 292 288 283 279 275 273 272 271 270
67 110 93 87 65 49 309 279 313 278 261 284 322 320 287 268 265 228 231 239 214 194 167 149 153 148 138 138 136 131 119 95 43 31 37 38 44 44 43 45 43 44 43 40 39 36 32 26 22 20 16 15 11 4 1 356 348 342 338 335 333 332 332 332 331 329 328 327 325 329 336 338 339 342 340 336 333 325 321 320 318 318 318 315 311 307 303 300 297 294 292 289 285 282 279 275 272
260 182 138 112 136 136 227 245 210 261 279 302 315 293 191 200 310 236 240 251 198 176 164 147 148 150 146 144 143 143 129 66 30 44 53 54 60 61 59 57 53 52 50 48 46 43 38 33 30 27 25 23 18 12 8 3 357 350 345 341 338 336 334 332 331 329 326 324 322 323 325 327 327 330 331 329 327 322 320 320 318 319 320 317 314 311 308 305 301 298 296 295 293 292 289 285 282
236 174 98 58 148 135 134 187 185 198 316 304 285 227 218 213 300 293 303 293 167 167 168 153 147 150 146 149 153 150 150 12 47 67 67 72 76 71 66 59 54 50 48 46 45 43 40 37 33 29 26 23 19 15 11 7 4 359 354 350 346 344 341 337 335 332 328 324 321 319 318 317 316 315 315 314 314 315 315 315 315 317 318 316 314 313 311 309 305 301 299 298 297 297 295 292 290
212 103 67 226 151 119 111 190 298 72 60 284 267 259 297 343 297 311 10 46 239 221 193 166 144 140 142 153 160 160 189 205 102 100 94 91 82 73 67 60 55 49 43 40 38 37 36 33 30 26 22 19 15 12 7 3 1 358 355 353 350 348 346 343 341 338 335 332 326 320 316 314 312 309 307 305 306 305 306 307 306 307 308 307 307 307 306 305 303 299 298 298 298 298 295 292 292
90 109 218 222 122 99 105 107 1 39 18 282 328 293 296 348 255 308 17 190 244 261 242 166 137 147 156 161 166 181 197 173 135 123 114 106 92 79 69 60 55 47 38 34 31 29 28 25 22 20 16 13 10 7 4 360 357 355 353 352 350 348 347 345 343 341 338 335 331 326 321 317 314 312 309 306 305 304 302 302 301 301 300 299 299 300 300 299 298 296 296 296 296 297 294 291 291
164 179 190 101 137 124 51 88 51 24 322 291 314 305 259 208 221 254 213 200 215 232 227 149 145 163 172 172 175 186 187 176 159 139 129 122 108 92 77 66 53 41 33 29 27 26 25 21 17 13 10 7 4 0 358 356 353 352 351 351 350 349 348 345 342 340 338 335 333 330 327 323 319 316 313 310 308 306 304 302 301 301 300 299 299 300 300 300 299 297 297 296 295 296 293 290 290
47 25 347 354 153 164 122 90 154 166 244 277 315 331 281 233 214 195 208 209 193 190 189 171 172 173 176 178 180 186 186 184 169 150 144 137 119 104 88 68 45 33 30 29 28 24 20 16 10 6 4 0 357 355 353 350 348 348 348 348 348 348 348 346 342 339 336 335 333 331 329 327 324 320 317 314 311 309 307 304 303 302 301 301 301 301 301 300 299 298 298 297 296 296 293 290 290
108 58 330 299 92 150 162 354 90 129 155 190 258 312 276 248 209 182 209 219 192 180 175 179 179 170 168 173 172 187 193 185 171 159 155 143 124 109 87 57 36 31 30 29 26 18 12 7 2 359 357 354 353 352 350 347 346 346 344 345 346 347 347 346 344 341 338 336 334 331 330 327 324 321 319 317 313 311 309 306 305 303 303 302 301 301 301 300 299 298 299 299 298 297 295 292 292
162 165 192 182 147 125 117 319 319 96 137 173 156 268 272 259 215 198 221 230 203 187 173 174 179 167 157 157 155 183 201 190 175 169 160 143 129 119 86 48 29 26 26 22 15 8 3 358 355 353 351 352 353 351 350 348 347 345 345 346 347 347 348 348 348 347 344 343 339 336 333 330 327 324 323 321 317 314 312 310 309 307 306 305 304 303 302 302 302 301 300 300 300 300 298 295 294